Weather History for Truckee-Tahoe, CA

Change the Weather History Date:

Thursday, October 4, 2012

  Actual Average Record
Temperature  
Mean Temperature 52 °F -  
Max Temperature 73 °F 69 °F 84 °F (1964)
Min Temperature 32 °F 31 °F 18 °F (1973)
Degree Days  
Heating Degree Days 12    
Growing Degree Days 2 (Base 50)    
Moisture  
Dew Point 27 °F    
Average Humidity 49    
Maximum Humidity 75    
Minimum Humidity 18    
Precipitation  
Precipitation 0.00 in - - ()
Sea Level Pressure  
Sea Level Pressure 30.27 in    
Wind  
Wind Speed 2 mph (SW)    
Max Wind Speed 20 mph    
Max Gust Speed 23 mph    
Visibility 10 miles    
Events      
Averages and records for this station are not official NWS values.
T = Trace of Precipitation, MM = Missing Value Source: NWS Daily Summary

Daily Weather History Graph

Daily Weather History Graph

Search for Another Location

Airport:

Trip Planner

Search our weather history database for the weather conditions in past years. The results will help you decide how hot, cold, wet, or windy it might be!

Date:

Astronomy

Oct. 04, 2012 Rise Set
Actual Time 7:00 AM PDT 6:37 PM PDT
Civil Twilight 6:33 AM PDT 7:04 PM PDT
Nautical Twilight 6:02 AM PDT 7:35 PM PDT
Astronomical Twilight 5:30 AM PDT 8:06 PM PDT
Moon 9:18 PM PDT (10/4) 11:19 AM PDT (10/4)
Length of Visible Light 12h 30m
Length of Day
11h 37m
Waning Gibbous, 81% of the Moon is Illuminated
Oct 4
Waning Gibbous
Oct 8
Last Quarter
Oct 15
New
Oct 21
First Quarter
Oct 29
Full

Hourly Weather History & Observations

Time (PDT) Temp. Windchill Dew Point Humidity Pressure Visibility Wind Dir Wind Speed Gust Speed Precip Events Conditions
12:15 AM 42.8 °F - 26.6 °F 53% 30.25 in 10.0 mi Calm Calm - N/A   Clear
12:35 AM 41.0 °F - 23.0 °F 49% 30.25 in 10.0 mi Calm Calm - N/A   Clear
12:55 AM 39.2 °F - 24.8 °F 56% 30.25 in 10.0 mi Calm Calm - N/A   Clear
1:15 AM 41.0 °F - 26.6 °F 57% 30.25 in 10.0 mi Calm Calm - N/A   Clear
1:35 AM 39.2 °F - 26.6 °F 61% 30.25 in 10.0 mi Calm Calm - N/A   Clear
1:55 AM 39.2 °F - 26.6 °F 61% 30.26 in 10.0 mi Calm Calm - N/A   Clear
2:15 AM 37.4 °F - 26.6 °F 65% 30.26 in 10.0 mi Calm Calm - N/A   Clear
2:35 AM 37.4 °F - 26.6 °F 65% 30.26 in 10.0 mi Calm Calm - N/A   Clear
2:55 AM 37.4 °F - 26.6 °F 65% 30.26 in 10.0 mi Calm Calm - N/A   Clear
3:15 AM 39.2 °F - 26.6 °F 61% 30.25 in 10.0 mi Calm Calm - N/A   Clear
3:35 AM 37.4 °F - 26.6 °F 65% 30.25 in 10.0 mi Calm Calm - N/A   Clear
3:55 AM 35.6 °F - 24.8 °F 65% 30.25 in 10.0 mi Calm Calm - N/A   Clear
4:15 AM 35.6 °F - 24.8 °F 65% 30.25 in 10.0 mi Calm Calm - N/A   Clear
4:35 AM 35.6 °F - 24.8 °F 65% 30.26 in 10.0 mi Calm Calm - N/A   Clear
4:55 AM 33.8 °F - 24.8 °F 70% 30.26 in 10.0 mi Calm Calm - N/A   Clear
5:15 AM 35.6 °F - 24.8 °F 65% 30.26 in 10.0 mi Calm Calm - N/A   Clear
5:35 AM 35.6 °F - 24.8 °F 65% 30.26 in 10.0 mi Calm Calm - N/A   Clear
5:55 AM 33.8 °F - 24.8 °F 70% 30.26 in 10.0 mi Calm Calm - N/A   Clear
6:15 AM 35.6 °F - 24.8 °F 65% 30.27 in 10.0 mi Calm Calm - N/A   Clear
6:35 AM 32.0 °F - 24.8 °F 75% 30.27 in 10.0 mi Calm Calm - N/A   Clear
6:45 AM 32.0 °F - 24.8 °F 75% 30.28 in 10.0 mi Calm Calm - N/A   Clear
7:50 AM 32.0 °F - 24.8 °F 75% 30.28 in 10.0 mi Calm Calm - N/A   Partly Cloudy
8:55 AM 44.6 °F - 26.6 °F 49% 30.29 in 10.0 mi Calm Calm - N/A   Partly Cloudy
9:55 AM 57.2 °F - 30.2 °F 36% 30.28 in 10.0 mi Calm Calm - N/A   Partly Cloudy
10:45 AM 64.4 °F - 28.4 °F 26% 30.27 in 10.0 mi Calm Calm - N/A   Partly Cloudy
11:45 AM 71.6 °F - 26.6 °F 19% 30.27 in 10.0 mi West 13.8 mph 23.0 mph N/A   Partly Cloudy
12:55 PM 71.6 °F - 26.6 °F 19% 30.27 in 10.0 mi West 13.8 mph 23.0 mph N/A   Scattered Clouds
2:55 PM 73.4 °F - 26.6 °F 18% 30.25 in 10.0 mi SW 19.6 mph 23.0 mph N/A   Partly Cloudy
3:45 PM 71.6 °F - 26.6 °F 19% 30.25 in 10.0 mi SW 16.1 mph 21.9 mph N/A   Clear
4:45 PM 68.0 °F - 26.6 °F 21% 30.25 in 10.0 mi SSW 13.8 mph 21.9 mph N/A   Clear
5:50 PM 66.2 °F - 28.4 °F 24% 30.25 in 10.0 mi WSW 9.2 mph - N/A   Clear
5:55 PM 66.2 °F - 28.4 °F 24% 30.25 in 10.0 mi SW 9.2 mph - N/A   Clear
6:15 PM 64.4 °F - 28.4 °F 26% 30.26 in 10.0 mi West 8.1 mph - N/A   Clear
6:35 PM 62.6 °F - 28.4 °F 27% 30.26 in 10.0 mi WSW 5.8 mph - N/A   Clear
6:55 PM 60.8 °F - 28.4 °F 29% 30.27 in 10.0 mi West 4.6 mph - N/A   Clear
7:15 PM 59.0 °F - 28.4 °F 31% 30.27 in 10.0 mi WSW 5.8 mph - N/A   Clear
7:35 PM 55.4 °F - 28.4 °F 36% 30.27 in 10.0 mi South 4.6 mph - N/A   Clear
7:55 PM 50.0 °F - 26.6 °F 40% 30.28 in 10.0 mi SE 4.6 mph - N/A   Clear
8:15 PM 50.0 °F - 26.6 °F 40% 30.28 in 10.0 mi South 5.8 mph - N/A   Clear
8:35 PM 48.2 °F - 26.6 °F 43% 30.28 in 10.0 mi South 3.5 mph - N/A   Clear
8:55 PM 48.2 °F - 26.6 °F 43% 30.28 in 10.0 mi South 3.5 mph - N/A   Clear
9:15 PM 48.2 °F - 26.6 °F 43% 30.28 in 10.0 mi South 3.5 mph - N/A   Clear
9:35 PM 44.6 °F - 28.4 °F 53% 30.28 in 10.0 mi Calm Calm - N/A   Clear
9:55 PM 46.4 °F 43.5 °F 26.6 °F 46% 30.29 in 10.0 mi SE 5.8 mph - N/A   Clear
10:15 PM 41.0 °F 39.0 °F 26.6 °F 57% 30.29 in 10.0 mi WSW 3.5 mph - N/A   Clear
10:35 PM 46.4 °F - 28.4 °F 50% 30.30 in 10.0 mi Calm Calm - N/A   Clear
10:55 PM 44.6 °F 43.1 °F 28.4 °F 53% 30.30 in 10.0 mi South 3.5 mph - N/A   Clear
11:15 PM 41.0 °F 39.0 °F 28.4 °F 61% 30.30 in 10.0 mi SSW 3.5 mph - N/A   Clear
11:35 PM 42.8 °F - 28.4 °F 57% 30.30 in 10.0 mi Calm Calm - N/A   Clear
11:55 PM 39.2 °F 37.0 °F 28.4 °F 65% 30.30 in 10.0 mi SW 3.5 mph - N/A   Clear